Regional Weather Roundup
Issued by NWS

Home | Current Version | Previous Version | Graphics & Text | Print | Product List | Glossary On
Versions: 1 2 3 4 5 6 7 8 9 10 11 12 13 14 15 16 17 18 19 20 21 22 23 24 25 26 27 28
000
ASUS45 KCYS 190110
RWRWY

WYOMING REGIONAL WEATHER ROUNDUP
NATIONAL WEATHER SERVICE CHEYENNE WY
700 PM MDT WED APR 18 2018

NOTE:  "FAIR" INDICATES FEW OR NO CLOUDS BELOW 12,000 FEET
WITH NO SIGNIFICANT WEATHER AND/OR OBSTRUCTIONS TO VISIBILITY.

WYZ001-190200-
YELLOWSTONE NATIONAL PARK

CITY           SKY/WX    TMP DP  RH WIND       PRES   REMARKS
LK YELLOWSTONE   N/A     34   5  29 CALM      30.17S
W YELLOWSTONE  NOT AVBL

$$
WYZ002>013-054>058-071-098>099-190200-
NORTHERN WYOMING

CITY           SKY/WX    TMP DP  RH WIND       PRES   REMARKS
JACKSON        FAIR      43  10  26 W3        30.12F
CODY           FAIR      48  20  32 SE14      30.15R
GREYBULL       FAIR      52  21  29 E8        30.15F
WORLAND        FAIR      51  20  29 E8        30.14S
SHERIDAN       FAIR      51  20  29 E3        30.19F
BUFFALO        FAIR      47  19  33 E5        30.20F
GILLETTE         N/A    N/A N/A N/A MISG      30.20S
HULETT         FAIR      50  21  32 N8        30.23R
NEWCASTLE      FAIR      48  18  29 N10       30.23R

$$
WYZ014>020-022>026-101>103-190200-
CENTRAL WYOMING

CITY           SKY/WX    TMP DP  RH WIND       PRES   REMARKS
BIG PINEY      FAIR      46   0  14 S6        30.12F
PINEDALE       FAIR      43   1  17 SE6       30.13S
DUBOIS         FAIR      41   1  19 SE6       30.12S
LANDER         FAIR      50  16  25 W5        30.09S
RIVERTON       FAIR      51  15  23 NE7       30.11S
CASPER         FAIR      47  17  30 E12       30.18F
DOUGLAS        FAIR      50  17  27 N7        30.21F

$$
WYZ021-027>030-104>119-190200-
SOUTHERN WYOMING

CITY           SKY/WX    TMP DP  RH WIND       PRES   REMARKS
EVANSTON       FAIR      47  13  25 SE6       30.08S
KEMMERER       FAIR      45   0  15 E7        30.11S
FORT BRIDGER   FAIR      48   2  15 NE7       30.12S
ROCK SPRINGS   FAIR      47   2  15 SE14      30.12S
DIXON          FAIR      48  12  23 W3        30.18F
RAWLINS        FAIR      45   8  22 S5        30.18S
SARATOGA       FAIR      46   3  17 CALM      30.18S
LARAMIE        FAIR      44   9  23 NE6       30.20R
CHEYENNE       FAIR      47  15  27 NE9       30.22R
TORRINGTON     FAIR      51  21  30 N12       30.21R
PINE BLUFFS    FAIR      46  18  31 NE9       30.23S

$$




USA.gov is the U.S. government's official web portal to all federal, state and local government web resources and services.